Regional Weather Roundup
Issued by NWS

Current Version | Previous Version | Text Only | Print | Product List | Glossary On
Versions: 1 2 3 4 5 6 7 8 9 10 11 12 13 14 15 16 17 18 19 20 21 22 23 24 25 26 27 28 29 30 31 32 33 34 35 36 37 38 39 40 41 42 43 44 45 46 47 48 49 50
467
ASUS44 KFWD 201503
RWRTX
NORTH TEXAS HOURLY WEATHER ROUNDUP
NATIONAL WEATHER SERVICE FORT WORTH TX
1000 AM CDT TUE APR 20 2021

NOTE: "FAIR" INDICATES FEW OR NO CLOUDS BELOW 12,000 FEET WITH NO
SIGNIFICANT WEATHER AND/OR OBSTRUCTIONS TO VISIBILITY.

TXZ118-119-201600-
DALLAS/FORT WORTH METROPLEX

CITY           SKY/WX    TMP DP  RH WIND       PRES   REMARKS
DFW AIRPORT    FAIR      56  43  61 N21       30.05R
DALLAS LOVE    FAIR      61  46  57 N16       30.05R
FTW MEACHAM    FAIR      52  42  69 N16G26    30.08R
DAL-EXECUTIVE  FAIR      62  45  53 NW18G28   30.03R
FTW-ALLIANCE   FAIR      51  39  63 NW22G30   30.08R
FTW-NAS-JRB    FAIR      53  41  63 NW21      30.10R
FTW-SPINKS     SUNNY     61  46  59 NW20      30.07R
ARLINGTON      FAIR      61  45  55 NW17      30.05R
ADDISON        SUNNY     57  45  62 N16G25    30.07R
MESQUITE       SUNNY     63  45  51 W10       30.02S
LANCASTER      FAIR      63  46  54 NW12      30.04S
$$

TXZ091>094-102>105-117-120-121-131>134-201600-
NORTH CENTRAL TEXAS

CITY           SKY/WX    TMP DP  RH WIND       PRES   REMARKS
SHRMAN/DENISON SUNNY     46  36  66 NW16G22   30.12R WCI  40
BOWIE          PTSUNNY   44  32  63 N17G24    30.15R WCI  37
BRIDGEPORT     FAIR      47  35  64 N14G23    30.17R
DECATUR        FAIR      46  34  62 N13G21    30.13R
DENTON         FAIR      50  37  61 N20G31    30.11R
MCKINNEY       FAIR      54  42  64 N18       30.07R
BONHAM         FAIR      48  38  67 NW14G23   30.09R
GREENVILLE     FAIR      62  47  57 W13       30.03R
ROCKWALL       FAIR      62  46  54 N15       30.04R
TERRELL        FAIR      62  49  62 W9        30.03R
WAXAHACHIE     FAIR      62  47  58 W9        30.05R
CLEBURNE       SUNNY     63  46  55 N17       30.06R
GRANBURY       FAIR      51  40  65 NW18G24   30.12R
$$

TXZ083>090-098>101-113>116-127>130-139>142-154-155-201600-
WESTERN NORTH TEXAS

CITY           SKY/WX    TMP DP  RH WIND       PRES   REMARKS
WICHITA FALLS  CLOUDY    43  29  57 N23       30.20R WCI  34
WF-KICKAPOO    PTSUNNY   42  29  58 N22G29    30.21R WCI  33
VERNON         CLOUDY    41  27  57 N25G33    30.25R WCI  31
ABILENE        CLOUDY    43  30  60 N16G32    30.18R WCI  35
ABILENE-DYESS  CLOUDY    42  26  53 N20G28    30.18R WCI  33
BRECKENRIDGE   CLOUDY    44  33  64 N14G22    30.18R WCI  37
CISCO          FAIR      41  32  70 N16G30    30.13R WCI  33
EASTLAND       CLOUDY    42  33  72 NW16G25   30.15R WCI  34
RANGER         FAIR      44  34  66 N15G25    30.14R WCI  37
MINERAL WELLS  FAIR      46  34  62 N21G31    30.13R WCI  38
STEPHENVILLE   FAIR      51  40  67 NW18G26   30.12R
COMANCHE       FAIR      51  42  73 N17G24    30.11R
COLEMAN        FAIR      49  36  61 N16G23    30.13R
BRADY          PTSUNNY   59  45  58 NW9G16    30.06R
$$

TXZ143>147-156>162-174-175-201600-
CENTRAL TEXAS

CITY           SKY/WX    TMP DP  RH WIND       PRES   REMARKS
WACO           FAIR      66  49  54 SW8       30.04R
WACO-MCGREGOR  FAIR      66  49  54 W9        30.05R
HILLSBORO      FAIR      62  50  65 W9        30.04R
CORSICANA      FAIR      65  50  58 SW13      30.04S
MEXIA          FAIR      66  47  51 W13G21    30.05R
HEARNE         FAIR      66  51  58 CALM      30.06S
CAMERON        FAIR      67  47  48 W9        30.05R
TEMPLE         FAIR      67  46  47 SW14      30.05R
KILLEEN        FAIR      64  48  56 SW8       30.03R
KILLEEN-SKYLRK   N/A    N/A N/A N/A W9        30.05R
FORT HOOD      FAIR      64  47  54 W9        30.05R
GATESVILLE     FAIR      64  46  52 SW8       30.06S
HAMILTON       FAIR      62  47  58 NW15G21   30.07R
$$

TXZ095>097-106>112-122>126-135>138-148>153-164>167-201600-
EAST TEXAS

CITY           SKY/WX    TMP DP  RH WIND       PRES   REMARKS
PARIS          FAIR      55  46  71 NW16      30.04R
SULPHUR SPRNGS FAIR      62  50  66 CALM      30.05S
GILMER         FAIR      63  47  55 SW7       30.03S
TYLER          FAIR      64  48  56 SW10      30.03S
LONGVIEW       FAIR      66  48  52 W8        30.02S
MARSHALL       FAIR      65  49  56 W6        30.05S
ATHENS         FAIR      63  48  59 SW6       30.02F
PALESTINE      FAIR      64  52  63 SW10      30.05R
JACKSONVILLE   FAIR      63  51  65 SW10G17   30.06S
HENDERSON      FAIR      63  49  61 SW7       30.06R
CENTER         FAIR      64  50  59 W6        30.05S
NACOGDOCHES    FAIR      65  53  65 W9        30.05S
LUFKIN         FAIR      66  51  58 W8        30.04S
$$

SUPPLEMENTAL OBSERVATIONS (NWS FORT WORTH AREA)

CITY           SKY/WX    TMP DP  RH WIND       PRES   REMARKS
$$

SUPPLEMENTAL OBSERVATIONS (NWS NORMAN AREA)

CITY           SKY/WX    TMP DP  RH WIND       PRES   REMARKS
GOODLETT         N/A     38  25  61 N22       30.26R WCI  27
ODELL            N/A     39  26  60 VRB22     30.26R WCI  28
CROWELL          N/A     40  26  57 N22       30.26R WCI  29
KNOX CITY        N/A     43  26  51 N18       30.23R WCI  35
SEYMOUR          N/A     41  28  59 N22       30.23R WCI  32
$$

SUPPLEMENTAL OBSERVATIONS (NWS SAN ANGELO AREA)

CITY           SKY/WX    TMP DP  RH WIND       PRES   REMARKS
WEINERT          N/A     42  26  52 VRB25     30.23R WCI  32
HASKELL          N/A     42  28  58 N24       30.22R WCI  32
THROCKMORTON     N/A     42  28  59 N14G28    30.21R WCI  34
STAMFORD         N/A     42  29  60 N22       30.23R WCI  33
CLYDE            N/A     40  31  68 N18       30.18R WCI  31
$$

SUPPLEMENTAL OBSERVATIONS (NWS SHREVEPORT AREA)

CITY           SKY/WX    TMP DP  RH WIND       PRES   REMARKS
$$

SUPPLEMENTAL OBSERVATIONS ARE A COLLECTION OF AUTOMATED INSTRUMENTS
THAT ARE MAINTAINED BY A VARIETY OF FEDERAL AND STATE AGENCIES.
CERTAIN ELEMENTS...SUCH AS HUMIDITY VALUES AND SUSTAINED WIND
SPEEDS...MAY BE APPROXIMATED.





USA.gov is the U.S. government's official web portal to all federal, state and local government web resources and services.